Location: Penton Mewsey
(51.2167°N, 1.5167°W)
Time: 07:46:30
(UTC+00:00)

Terra - Pass Details

Date: 30 March 2020
Orbit: 701 x 703 km, 98.2° (Epoch: 03 June)

Event Time Altitude Azimuth Distance (km) Brightness Sun altitude
Exits shadow 23:11:00 20° 288° (WNW) 1,604 3.9 -33.1°
Drops below altitude 10° 23:13:37 10° 319° (NW) 2,182 5.1 -33.2°
Sets 23:16:23 0° 335° (NNW) 3,107 6.2 -33.4°
